Погода Ростов Великий

Хотите узнать прогноз погоды Ростов Великий? Тогда Вам сюда: Погода Ростов Великий

Поиск расширенной информации на нашем сайте:

Полезная информация:

Новости сайта



02.01.2020
Опубликован Долгосрочный прогноз погоды по городам России и ближнего зарубежья на январь 2020 года.
Карты: Прогноз на январь и февраль 2020 года, Сравнение прогнозируемой аномалии приземной температуры воздуха на январь 2020 года по разным моделям.




Погода Ростов Великий - сегодня

Время (UTC), дата Ветер
(°,м/с) 
Видим.   Явления Облачность Т
(°С)
Тd
(°С)
f(%) Тe
(°С)
Pmin
(гПа)
dP
(гПа)
Po
(мм)
O2
(г/м3)
Тmin Tmax R s Состояние
почвы
12 03.03.21 290 (З) 4000 м  слаб. ливневой снег  10/8 600 м кучево-дожд., верхняя 
[Cb cap|Ci fib]
+1.3 -4.8 64 -1  1009.7  -1.7  748  300           
15 03.03.21 280 (З) 10 км  в посл. час крупа{ливн. осадки}  10/6 600 м кучево-дожд., верхняя 
[Cb cap|Ci fib]
+0.3 -3.3 77 -1  1007.6  -2.2  746  301    +1.7  0.1     
18 03.03.21 250 (З) 10 км  {ливн. осадки}  10/10 600 м 
[Sc]
+0.5 -5 67 1005.5  -2  745  300           
21 03.03.21 270 (З) 10 км    4/1 600 м верхняя 
[Sc|Ci fib]
+0.8 -4.3 69 -1  1002.3  -3.2  742  299           
00 04.03.21 260 (З) 4000 м  слаб. ливневой снег  10/10 600 м кучево-дожд. 
[Cb cap]
+0.3 -1.8 86 -1  998.8  -3.4  740  298           
03 04.03.21 280 (З) 4000 м  слаб. ливневой снег  10/10 600 м кучево-дожд. 
[Cb cap]
+1 -0 93 -2  995.4  -3.4  737  296  -0.5    0.8  38  равномерный
мокрый или
старый снег
100% 
06 04.03.21 320 (СЗ) 5{12}  2000 м  ливневой снег  10/10 600 м кучево-дожд. 
[Cb cap]
-0.4 -2.8 84 -3  995.1  -0.3  737  298  -0.8         
09 04.03.21 330 (СЗ) 6-11{12}  4000 м  слаб. ливневой снег  8/5 600 м кучево-дожд., верхняя 
[Cb cap|Ci sp]
-0.2 -5.8 66 -4  997.2  2.1  739  298           
12 04.03.21 320 (СЗ) 3{11}  10 км  {ливн. осадки}  8/5 600 м верхняя 
[Sc|Ci fib]
-0.1 -6.7 61 -2  998.2  739  299           
15 04.03.21 350 (С) 3{11}  1000 м  ливневой снег  10/10 600 м кучево-дожд. 
[Cb cap]
-3.5 -4.1 96 -6  999.5  1.1  740  303    +1.3     
18 04.03.21 310 (СЗ) 4000 м  слаб. ливневой снег  10/10 600 м кучево-дожд. 
[Cb cap]
-6.2 -6.9 95 -6  1000.3  0.7  741  306           
21 04.03.21 280 (З) 10 км  {ливн. осадки}  10/10 600 м 
[Sc]
-9.1 -10.2 92 -9  1001.4  0.7  741  310           
00 05.03.21 310 (СЗ) 10 км    10/10 600 м 
[Sc]
-11 -11.9 93 -11  1002.7  1.1  742  313           
03 05.03.21 тихо ()   10 км    8/5 600 м верхняя 
[Sc|Ci fib]
-9.7 -10.7 92 -10  1003.2  0.6  743  311  -12.2    0.6  40  равномерный
сухой снег
100% 
06 05.03.21 280 (З) 10 км  в посл. час ливневой снег  8/5 600 м кучево-дожд., верхняя 
[Cb cap|Ci fib]
-5.3 -6.6 91 -7  1004  0.9  743  306           
09 05.03.21 310 (СЗ) 10 км  в посл. час ливневой снег  10/8 600 м кучево-дожд., верхняя 
[Cb cap|Ci fib]
-2.9 -8.9 63 -6  1005.3  1.4  744  304           
12 05.03.21 340 (С) 2000 м  ливневой снег  10/10 600 м кучево-дожд. 
[Cb cap]
-4.7 -6.7 86 -8  1007.5  746  307           
15 05.03.21 340 (С) 10 км  {ливн. осадки}  3/1 600 м верхняя 
[Sc|Ci fib]
-7 -11.7 69 -7  1009.9  2.2  748  310    -1.8  0.5     
18 05.03.21 тихо ()   10 км  {ливн. осадки}  3/3 600 м 
[Sc]
-13.8 -15.1 90 -14  1012.2  1.9  749  319           
21 05.03.21 330 (СЗ) 10 км    ясно 
-15.9 -17.7 86 -16  1013.6  1.3  750  322           
00 06.03.21 320 (СЗ) 10 км    ясно 
-15.2 -16.9 87 -15  1014.6  751  322           
03 06.03.21 тихо ()   10 км    ясно 
-18.3 -20.5 83 -18  1015.1  0.4  751  326  -18.3      41  равномерный
сухой снег
100% 
06 06.03.21 170 (Ю) 4000 м  слаб. ливневой снег  4/3 600 м кучево-дожд., средняя 
[Cb cap|Ac trans]
-13.2 -14.9 87 -13  1015.6  0.7  752  320  -18.4         
09 06.03.21 270 (З) 10 км  {ливн. осадки}  4/4 600 м 
[Sc]
-5.4 -11.5 62 -5  1015  -0.2  752  310           
12 06.03.21 270 (З) 10 км  {ливн. осадки}  6/6 600 м кучево-дожд. 
[Cb cap]
-5.9 -10.4 70 -7  1014.2  -0.8  751  310           
Время (UTC), дата Ветер
(°,м/с) 
Видим.   Явления Облачность Т
(°С)
Тd
(°С)
f(%) Тe
(°С)
Pmin
(гПа)
dP
(гПа)
Po
(мм)
O2
(г/м3)
Тmin Tmax R s Состояние
почвы

Для получения пояснительной информации подведите курсор к названию столбца.

ПОГОДА Ростов Великий - архив

Всё, что Вы хотите узнать о погоде Ростов Великий - удобно и подробно!

Выберите нужную дату (начиная с 1 января 2019* года) и нажмите кнопку "Найти".
Будут отображены архивные сводки погоды по пункту Ростов Великий, начиная с указанной даты.


Отображать данные в формате CSV (для использования в таблицах Excel)


Внимание! Наш архив погоды предназначен исключительно для личного некоммерческого использования в познавательных целях. Если Вам необходимы официальные справки о состоянии погоды (для производственных, юридических, коммерческих и т.п. целей), обращайтесь в органы Росгидромета.

*Примечание: данная дата относится к архиву по метеостанциям СССР (Россия, СНГ, Балтия).
Архив по метеостанциям Зарубежной Европы и Азии (кроме Китая) хранится 10 дней, по другим регионам земного шара (Китай, Африка, Америка, Австралия, Океания) - 1 день.

Ростов Великий - район местоположения метеостанции


Название, широта, долгота, высота метеостанции:
Ростов Великий 57.2°ш. 39.4°д. 101 м над ур. моря [Российская Федерация]

Дополнительная информация

В oтличие oт бoльшинства пoгoдных сайтoв мы публикуем пoдрoбную метеoинфoрмацию в детальнoм прoфессиoнальнoм фoрмате.

Характеристики температуры и влажнoсти вoздуха измеряются на высoте 2 м в тени вдали oт зданий и деревьев.
Скoрoсть ветра измеряется на высoте 10 м (на урoвне рoста челoвека скoрoсть ветра ниже в 1.5-2 раза). Если метеoстанция нахoдится в гoрoде или в лесу, тo скoрoсть ветра занижена на 2-4 м/с пo сравнению с oткрытым местoм. Скoрoсть ветра над акватoриями крупных рек и oзёр, а также на вершинах хoлмoв на 2-5 м/с выше, чем в oбычных услoвиях.
Атмoсфернoе давление в разных тoчках местнoсти мoжет значительнo oтличаться oт давления на метеoстанции, в зависимoсти oт услoвий рельефа (при пoдъёме на 10 м давление пoнижается примернo на 1 мм рт.ст.).